Flag for Austria Past Weather in Waidhofen an der Ybbs, Lower Austria, Austria — Yesterday and Last 2 Weeks

Now
60 °F

Cool.


Feels Like: 60 °F
Forecast: 60 / 81 °F
Wind: 1 mph from West

Location: Amstetten

Current Time: Jul 30, 2016 at 5:45:22 AM

Latest Report: Jul 30, 2016 at 5:00 AM


Visibility: N/A

Pressure: 29.99 "Hg

Humidity: 99%

Dew Point: 60 °F

Location of Waidhofen an der YbbsLocation

Past Weather in Waidhofen an der Ybbs — Graph

°F

Waidhofen an der Ybbs Temperature Yesterday

Maximum temperature yesterday: 80 °F (at 5:00 PM)
Minimum temperature yesterday: 60 °F (at 5:00 AM)
Average temperature yesterday: 71 °F

High & Low Weather Summary for the Past Weeks

 TemperatureHumidityPressure
High84 °F (Jul 20, 4:00 PM)100% (Jul 18, 6:00 AM)30.29 "Hg (Jul 18, 6:00 AM)
Low50 °F (Jul 15, 4:00 AM)40% (Jul 19, 5:00 PM)29.90 "Hg (Jul 22, 6:00 PM)
Average69 °F80%30.06 "Hg
* Reported Jul 15 4:00 AM — Jul 30 4:00 AM, Waidhofen an der Ybbs, Weather by CustomWeather, © 2016

Note: Actual official high and low records may vary slightly from our data, if they occured in-between our weather recording intervals... More about our weather records

Advertising

Waidhofen an der Ybbs Weather History for the Previous 24 Hours

Scroll right to see more
 ConditionsComfort  
Time TempWeatherWind HumidityBarometerVisibility
4:00 AM
Sat, Jul 30
60 °FCool.1 mph100%29.99 "HgN/A
3:00 AM61 °FCool.No wind99%29.99 "HgN/A
2:00 AM61 °FCool.No wind98%29.99 "HgN/A
1:00 AM62 °FCool.No wind97%29.99 "HgN/A
12:00 AM64 °FMild.1 mph95%29.99 "HgN/A
11:00 PM
Fri, Jul 29
66 °FMild.1 mph90%29.98 "HgN/A
10:00 PM68 °FMild.No wind86%29.97 "HgN/A
9:00 PM71 °FMild.1 mph79%29.95 "HgN/A
8:00 PM78 °FWarm.2 mph55%29.93 "HgN/A
7:00 PM80 °FWarm.3 mph52%29.93 "HgN/A
6:00 PM80 °FWarm.3 mph55%29.92 "HgN/A
5:00 PM80 °FWarm.2 mph54%29.92 "HgN/A
4:00 PM79 °FWarm.2 mph53%29.94 "HgN/A
3:00 PM78 °FWarm.3 mph58%29.96 "HgN/A
2:00 PM78 °FWarm.2 mph59%29.96 "HgN/A
1:00 PM75 °FMild.2 mph68%29.98 "HgN/A
12:00 PM75 °FMild.2 mph67%29.99 "HgN/A
11:00 AM73 °FMild.3 mph69%30.01 "HgN/A
10:00 AM71 °FMild.3 mph77%30.02 "HgN/A
9:00 AM67 °FMild.2 mph84%30.02 "HgN/A
8:00 AM65 °FPartly sunny.1 mph91%30.02 "HgN/A
7:00 AM62 °FCool.1 mph96%30.02 "HgN/A
6:00 AM61 °FCool.1 mph97%30.02 "HgN/A
5:00 AM60 °FCool.1 mph98%30.01 "HgN/A
Weather by CustomWeather, © 2016

See weather overviewHow to use our weather pages